Terminal Aerodrome Forecast
Issued by NWS Melbourne, FL

Home | Current Version | Previous Version | Text Only | Print | Product List | Glossary On
Versions: 1 2 3 4 5 6 7 8 9 10 11 12 13 14 15 16 17 18 19 20 21
000
FTUS42 KMLB 300532
TAFDAB
TAF
KDAB 300532Z 3006/3106 25003KT P6SM FEW010 BKN150
     FM301400 24007KT P6SM SCT020 SCT050 BKN250
     FM301900 21008KT P6SM VCTS SCT035CB SCT100 BKN250
     FM310000 23003KT P6SM FEW035 BKN250=

USA.gov is the U.S. government's official web portal to all federal, state and local government web resources and services.